Weather History for KMTV - March, 2013

Change the Weather History Date:

Wednesday, March 6, 2013

  Actual Average (KGSO) Record (KGSO)
Temperature  
Mean Temperature 42 °F 47 °F  
Max Temperature 48 °F 58 °F 77 °F (1956)
Min Temperature 37 °F 37 °F 5 °F (1960)
Degree Days  
Heating Degree Days 22 18  
Month to date heating degree days 112  
Since 1 July heating degree days 2967  
Cooling Degree Days 0 0  
Month to date cooling degree days 0  
Year to date cooling degree days 0  
Moisture  
Dew Point 29 °F    
Average Humidity 62    
Maximum Humidity 100    
Minimum Humidity 49    
Precipitation  
Precipitation 0.15 in 0.12 in 2.89 in (1932)
Month to date precipitation 0.70  
Year to date precipitation 6.72  
Snow  
Snow 0.00 in 0.10 in 6.00 in (1912)
Month to date snowfall 0.3  
Since 1 July snowfall 7.0  
Snow Depth -    
Sea Level Pressure  
Sea Level Pressure 29.82 in    
Wind  
Wind Speed 12 mph (NNW)    
Max Wind Speed 30 mph    
Max Gust Speed 39 mph    
Visibility 10 miles    
Events Rain    
T = Trace of Precipitation, MM = Missing Value Source: NWS Daily Summary

Daily Weather History Graph

Daily Weather History Graph

Search for Another Location

Airport or City:

Trip Planner

Search our weather history database for the weather conditions in past years. The results will help you decide how hot, cold, wet, or windy it might be!

Date:

Astronomy

Mar. 06, 2013 Rise Set
Actual Time 6:43 AM EST 6:19 PM EST
Civil Twilight 6:17 AM EST 6:45 PM EST
Nautical Twilight 5:47 AM EST 7:15 PM EST
Astronomical Twilight 5:17 AM EST 7:45 PM EST
Moon 2:44 AM EST (3/6) 1:06 PM EST (3/6)
Length of Visible Light 12h 27m
Length of Day
11h 36m
Waning Crescent, 30% of the Moon is Illuminated
Mar 6
Waning Crescent
Mar 11
New
Mar 19
First Quarter
Mar 27
Full
Apr 3
Last Quarter

Hourly Weather History & Observations

Time (EST) Temp. Windchill Dew Point Humidity Pressure Visibility Wind Dir Wind Speed Gust Speed Precip Events Conditions
12:15 AM - - - N/A% 29.63 in 10.0 mi NNW 6.9 mph - N/A   Drizzle
12:35 AM - - - N/A% 29.62 in 10.0 mi NNW 8.1 mph - 0.01 in Rain Light Rain
12:55 AM - - - N/A% 29.62 in 10.0 mi NNW 8.1 mph - 0.02 in Rain Light Rain
1:15 AM - - - N/A% 29.63 in 10.0 mi NNW 8.1 mph - 0.02 in Rain Light Rain
1:35 AM - - - N/A% 29.64 in 4.0 mi North 5.8 mph - 0.05 in Rain Heavy Rain
1:55 AM - - - N/A% 29.63 in 10.0 mi North 4.6 mph - 0.07 in Rain Light Rain
2:15 AM - - - N/A% 29.63 in 10.0 mi NNW 6.9 mph - 0.01 in Rain Light Rain
2:35 AM 37.6 °F 31.6 °F 37.6 °F 100% 29.63 in 10.0 mi NNW 8.1 mph - 0.03 in Rain Rain
2:55 AM - - - N/A% 29.62 in 5.0 mi North 4.6 mph - 0.05 in   Unknown
3:15 AM - - - N/A% 29.63 in 10.0 mi Calm Calm - N/A Rain Light Rain
3:35 AM - - - N/A% 29.62 in 10.0 mi Calm Calm - 0.01 in Rain Light Rain
3:55 AM - - - N/A% 29.62 in 10.0 mi Calm Calm - 0.01 in   Overcast
4:15 AM - - - N/A% 29.63 in 10.0 mi NW 10.4 mph - N/A   Overcast
4:35 AM 38.7 °F 31.8 °F 32.2 °F 78% 29.63 in 10.0 mi NW 10.4 mph - N/A   Overcast
4:55 AM 38.5 °F 31.6 °F 31.8 °F 77% 29.63 in 10.0 mi NW 10.4 mph - N/A   Overcast
5:15 AM 37.8 °F 33.3 °F 32.4 °F 81% 29.63 in 10.0 mi NW 5.8 mph - N/A   Overcast
5:35 AM 38.8 °F 31.2 °F 30.2 °F 71% 29.63 in 10.0 mi NNW 12.7 mph 20.7 mph N/A   Overcast
5:55 AM 38.7 °F 29.5 °F 29.1 °F 69% 29.64 in 10.0 mi NW 17.3 mph 23.0 mph N/A   Overcast
6:15 AM 38.3 °F 29.7 °F 27.9 °F 66% 29.65 in 10.0 mi NW 15.0 mph 23.0 mph N/A   Overcast
6:35 AM 37.9 °F 28.5 °F 27.5 °F 66% 29.65 in 10.0 mi NW 17.3 mph - N/A   Overcast
6:55 AM 37.9 °F 30.9 °F 27.5 °F 66% 29.66 in 10.0 mi NW 10.4 mph 20.7 mph N/A   Overcast
7:15 AM 37.8 °F 30.2 °F 27.9 °F 67% 29.67 in 10.0 mi NW 11.5 mph 19.6 mph N/A   Overcast
7:35 AM 37.8 °F 28.6 °F 27.1 °F 66% 29.68 in 10.0 mi NW 16.1 mph 28.8 mph N/A   Overcast
7:55 AM 37.8 °F 28.0 °F 26.2 °F 63% 29.69 in 10.0 mi NNW 18.4 mph 32.2 mph N/A   Overcast
8:15 AM 37.4 °F 27.8 °F 26.2 °F 64% 29.70 in 10.0 mi NW 17.3 mph 23.0 mph N/A   Overcast
8:35 AM 38.3 °F 28.4 °F 25.7 °F 61% 29.71 in 10.0 mi NW 19.6 mph 28.8 mph N/A   Overcast
8:55 AM 39.0 °F 29.0 °F 25.9 °F 59% 29.71 in 10.0 mi NW 20.7 mph 32.2 mph N/A   Overcast
9:15 AM 38.5 °F 28.3 °F 25.5 °F 60% 29.72 in 10.0 mi NW 20.7 mph 29.9 mph N/A   Overcast
9:35 AM 40.3 °F 31.6 °F 26.2 °F 57% 29.73 in 10.0 mi NW 17.3 mph 31.1 mph N/A   Mostly Cloudy
9:55 AM 39.6 °F 28.5 °F 25.9 °F 58% 29.74 in 10.0 mi NW 26.5 mph 32.2 mph N/A   Mostly Cloudy
10:15 AM 42.8 °F 32.7 °F 28.0 °F 56% 29.74 in 10.0 mi NNW 27.6 mph 33.4 mph N/A   Scattered Clouds
10:35 AM 43.5 °F 34.5 °F 28.0 °F 54% 29.75 in 10.0 mi NW 23.0 mph 32.2 mph N/A   Scattered Clouds
10:55 AM 42.4 °F 32.6 °F 26.2 °F 53% 29.76 in 10.0 mi NW 25.3 mph 39.1 mph N/A   Scattered Clouds
11:15 AM 43.0 °F 34.5 °F 27.1 °F 54% 29.76 in 10.0 mi NW 19.6 mph 27.6 mph N/A   Mostly Cloudy
11:35 AM 45.7 °F 36.2 °F 28.4 °F 51% 29.77 in 10.0 mi NW 29.9 mph 35.7 mph N/A   Scattered Clouds
11:55 AM 45.3 °F 37.6 °F 28.4 °F 52% 29.78 in 10.0 mi NW 19.6 mph 36.8 mph N/A   Mostly Cloudy
12:15 PM 44.6 °F 35.5 °F 28.0 °F 52% 29.79 in 10.0 mi NW 25.3 mph 33.4 mph N/A   Overcast
12:35 PM 46.6 °F - 28.9 °F 50% 29.79 in 10.0 mi NW 28.8 mph 36.8 mph N/A   Mostly Cloudy
12:55 PM 47.3 °F - 30.0 °F 51% 29.79 in 10.0 mi NNW 24.2 mph 34.5 mph N/A   Scattered Clouds
1:15 PM 47.5 °F - 29.5 °F 50% 29.79 in 10.0 mi NW 26.5 mph 34.5 mph N/A   Clear
1:35 PM 47.5 °F - 29.1 °F 49% 29.80 in 10.0 mi NW 24.2 mph 38.0 mph N/A   Scattered Clouds
1:55 PM 47.8 °F - 29.8 °F 50% 29.80 in 10.0 mi NNW 20.7 mph 34.5 mph N/A   Scattered Clouds
2:15 PM 47.7 °F - 29.7 °F 50% 29.81 in 10.0 mi NNW 24.2 mph 32.2 mph N/A   Scattered Clouds
2:35 PM 48.4 °F - 31.3 °F 52% 29.82 in 10.0 mi NNW 21.9 mph 31.1 mph N/A   Scattered Clouds
2:55 PM 48.0 °F - 30.2 °F 50% 29.84 in 10.0 mi NNW 23.0 mph 32.2 mph N/A   Scattered Clouds
3:15 PM 48.0 °F - 30.7 °F 51% 29.86 in 10.0 mi NW 19.6 mph 28.8 mph N/A   Mostly Cloudy
3:35 PM 46.4 °F 38.3 °F 30.4 °F 54% 29.88 in 10.0 mi NNW 23.0 mph 32.2 mph N/A   Overcast
3:55 PM 45.9 °F 38.3 °F 30.2 °F 54% 29.90 in 10.0 mi NNW 19.6 mph 35.7 mph N/A   Mostly Cloudy
4:15 PM 44.6 °F 35.9 °F 30.0 °F 57% 29.92 in 10.0 mi NNW 23.0 mph 29.9 mph N/A   Mostly Cloudy
4:35 PM 43.9 °F 35.0 °F 30.2 °F 59% 29.93 in 10.0 mi NW 23.0 mph 28.8 mph N/A   Overcast
5:15 PM 43.7 °F 34.3 °F 30.0 °F 59% 29.95 in 10.0 mi NNW 25.3 mph 31.1 mph N/A   Scattered Clouds
5:35 PM 43.7 °F 36.9 °F 30.4 °F 59% 29.97 in 10.0 mi NW 13.8 mph 23.0 mph N/A   Clear
5:55 PM 43.0 °F 38.8 °F 29.8 °F 60% 29.99 in 10.0 mi NNW 6.9 mph - N/A   Clear
6:15 PM 41.7 °F 36.1 °F 30.2 °F 64% 30.01 in 10.0 mi NW 9.2 mph 17.3 mph N/A   Clear
6:35 PM 41.0 °F 35.2 °F 30.2 °F 65% 30.02 in 10.0 mi NNW 9.2 mph 18.4 mph N/A   Scattered Clouds
6:55 PM 40.6 °F 34.3 °F 30.2 °F 66% 30.03 in 10.0 mi NNW 10.4 mph 20.7 mph N/A   Clear
7:15 PM 40.3 °F 34.9 °F 30.2 °F 67% 30.05 in 10.0 mi NNW 8.1 mph - N/A   Scattered Clouds
7:35 PM 39.7 °F 32.3 °F 30.7 °F 70% 30.04 in 10.0 mi NW 12.7 mph - N/A   Mostly Cloudy
7:55 PM 40.1 °F 32.7 °F 30.2 °F 68% 30.04 in 10.0 mi NNW 12.7 mph - N/A   Scattered Clouds
8:15 PM 40.1 °F 33.2 °F 30.2 °F 68% 30.05 in 10.0 mi NNW 11.5 mph - N/A   Clear
8:35 PM 39.9 °F 34.5 °F 30.0 °F 68% 30.05 in 10.0 mi NNW 8.1 mph - N/A   Scattered Clouds
8:55 PM 40.1 °F 35.3 °F 30.0 °F 67% 30.06 in 10.0 mi NNW 6.9 mph - N/A   Mostly Cloudy
9:15 PM 40.3 °F 33.4 °F 30.6 °F 68% 30.07 in 10.0 mi North 11.5 mph - N/A   Mostly Cloudy
9:35 PM 41.0 °F 35.8 °F 30.7 °F 67% 30.08 in 10.0 mi NNW 8.1 mph 21.9 mph N/A   Overcast
9:55 PM 41.4 °F 35.2 °F 30.9 °F 66% 30.09 in 10.0 mi NNW 10.4 mph 16.1 mph N/A   Overcast
10:15 PM 41.2 °F 34.1 °F 30.7 °F 66% 30.09 in 10.0 mi North 12.7 mph - N/A   Overcast
10:35 PM 41.5 °F 36.4 °F 30.7 °F 65% 30.09 in 10.0 mi NNW 8.1 mph - N/A   Overcast
10:55 PM 41.4 °F 34.7 °F 30.9 °F 66% 30.09 in 10.0 mi NNW 11.5 mph 19.6 mph N/A   Overcast
11:15 PM 41.7 °F 34.8 °F 30.7 °F 65% 30.09 in 10.0 mi NNW 12.7 mph 21.9 mph N/A   Overcast
11:35 PM 41.9 °F 34.6 °F 30.7 °F 65% 30.09 in 10.0 mi NNW 13.8 mph 23.0 mph N/A   Overcast
11:55 PM 41.9 °F 36.3 °F 30.6 °F 64% 30.10 in 10.0 mi NNW 9.2 mph 21.9 mph N/A   Overcast